STARLINK-33640, 63378

Orbit data source: Space-Track

STARLINK-33640, 63378 is a payload satellite owned by SpaceX/Seattle (US) in LEO that was launched on Wed, 26 Mar 2025 UTC via an FALCON 9 launch vehicle from the Air Force Western Test Range (AFWTR). Payload-class satellites include a variety of spacecraft equipped with specific instruments for various scientific and technological missions. These include communications satellites like Starlink; space stations such as the ISS; scientific satellites like the Hubble; Earth observation satellites from companies like Planet Labs, Umbra, and HawkEye 360; GPS; miniature CubeSats for education and research; and military/defense satellites.

Loading next visibility...
Identifier
63378, 2025-063R
Orbit
LEO
Country
Flag of USUS
Related business
Manufacturer
SpaceX/Seattle
Mission
Operational Commercial Communications
Bus & Motor
STARLINK V2MO, Unknown motor
Mass
575 kg wet, ~530 kg dry
Launch date (UTC)
2025-03-26 (1 year ago)
Launch vehicle
FALCON 9
Launch site
Air Force Western Test Range (AFWTR)
Object type
Payload
Rocket body
Debris
Shape & HBR
Box + 2 Pan, 17.7 m
Radar Cross Section
36.964 m², Large (>1 m²)

Expand to show TLE details & history
Last TLE update: 1 day ago

TLE from 1 day ago
0 STARLINK-33640
1 63378U 25063R   26170.72764372  .00023270  00000-0  79513-3 0  9999
2 63378  53.1601 298.3809 0001240  87.5754 272.5389 15.30207899 70385
Epoch: 2026-06-19T17:27Z
TLE epoch observation values (Epoch: 2026-06-19T17:27:48.417Z)
Latitude
Longitude
128.4767°
Altitude
476.054 km
Speed
7.629 km/s
True Right ascension
19h 53m 31s
True Declination
0° 00' 00"
Sunlit
Object was in full shadow at epoch
Visualization orbit readout
Latitude
Unknown
Longitude
Unknown
Altitude
Unknown
Speed
Unknown
Apparent Right ascension
Unknown
Apparent Declination
Unknown
Sunlit
N/A
Visualization observer readout
Local Sidereal Time
08:33:26
Azimuth
Unknown
Elevation
Unknown
Doppler factor
Unknown
Orbital elements
Apogee altitude
476.298 km
Perigee altitude
474.598 km
Semi-major axis
6,853.585 km
Eccentricity
0.00012
Inclination
53.1601°
RAAN
298.3809°
Arg. of periapsis
87.5754°
True anomaly
272.5247°
Mean anomaly
272.5389°
Eccentric anomaly
272.5318°
Mean motion
3.82531 °/min
Orbital period
94.11 mins
BSTAR
0.00079513
Loading maneuver chart data...
Computing Atmospheric mass density...
Loading historical data...
Loading historical data...
Loading historical data...
Loading historical data...
Loading historical data...
Loading historical data...
Loading historical data...

Documentation

Showing up to 5 results
|